Location: Dodgeville, WI 53533, USA
(43.0344°N, 90.0900°W)
Time: 05:23:36
(UTC-06:00)

ISS - Visible Passes

Search period start: 04 November 2024 00:00
Search period end: 14 November 2024 00:00
Orbit: 407 x 419 km, 51.6° (Epoch: 04 November)

Date Brightness Start Highest point End Pass type
(mag) Time Alt. Az. Time Alt. Az. Time Alt. Az.
04 Nov -3.2 05:14:38 35° WSW 05:15:11 39° SW 05:18:16 10° SSE visible
05 Nov -1.7 04:27:35 24° SE 04:27:35 24° SE 04:29:02 10° SE visible
06 Nov -1.6 05:13:27 14° SSW 05:13:27 14° SSW 05:14:34 10° S visible
12 Nov -1.8 18:29:41 10° SSW 18:31:06 19° S 18:31:06 19° S visible
13 Nov -1.8 17:40:37 10° S 17:42:38 15° SE 17:43:26 14° ESE visible
13 Nov -0.8 19:15:35 10° WSW 19:16:15 15° WSW 19:16:15 15° WSW visible
